Location: Bežerovice
(49.2981°N, 14.5167°E)
Time: 14:19:36
(UTC+00:00)

Daily predictions for brighter satellites

Satellite Brightness Start Highest point End
(mag) Time Altitude Azimuth Time Altitude Azimuth Time Altitude Azimuth
Resurs 01 Rocket 2.5 19:49:52 10° S 19:54:11 50° W 19:58:33 10° NNW
Cosmos 1850 Rocket 4.1 19:49:17 10° NNW 19:54:31 83° WSW 19:59:41 10° SSE
Cosmos 2184 Rocket 4.0 19:50:30 10° N 19:56:43 74° E 20:02:55 10° SSE
GEOS 3 Rocket 4.3 19:53:52 10° SSE 19:58:45 46° SW 20:03:42 10° NW
Cosmos 1331 Rocket 4.3 19:55:26 10° S 20:00:32 51° ESE 20:05:40 10° NNE
Cosmos 1656 4.3 19:56:28 10° NW 20:01:46 52° WSW 20:07:07 10° S
USA 32 4.4 19:57:37 10° SSW 20:02:49 69° W 20:08:03 10° N
SPOT 5 2.9 19:59:10 10° SSE 20:03:24 56° ENE 20:07:40 10° N
Terra 2.4 20:01:06 10° SE 20:05:35 44° ENE 20:10:07 10° N
Spot 2 Rocket 3.7 20:01:48 10° SSE 20:06:50 66° ENE 20:11:55 10° N
CZ-4B R/B 1.8 20:04:33 10° N 20:07:23 54° WNW 20:10:12 10° SSW
H-2A R/B 3.3 20:05:28 10° N 20:09:45 48° WNW 20:14:03 10° SW
SPOT 1/Viking Rocket 4.5 20:05:16 10° S 20:10:13 46° W 20:15:12 10° NNW
FALCON 9 DEB 3.6 20:10:19 10° WNW 20:13:32 54° NNE 20:16:44 10° E
Cosmos 1536 Rocket 3.8 20:10:55 10° SSW 20:15:14 75° W 20:19:38 10° N
USA 245 3.3 20:13:07 10° S 20:17:04 68° WSW 20:20:15 10° NNW
Cosmos 1697 Rocket 2.8 20:12:40 10° NNW 20:18:18 77° WSW 20:23:48 10° SSE
CARTOSAT-1 4.1 20:14:08 10° S 20:18:22 56° W 20:22:38 10° NNW
Cosmos 1980 Rocket 2.5 20:12:48 10° NNW 20:18:29 61° ENE 20:23:43 12° SE
Cosmos 1606 Rocket 3.7 20:14:40 10° N 20:18:59 61° ENE 20:23:02 11° SSE
SL-16 R/B 3.9 20:14:38 10° NNW 20:19:13 24° NE 20:23:46 10° E
Meteor 2-1 Rocket 4.2 20:17:50 10° N 20:23:23 76° ENE 20:28:47 11° SSE
Cosmos 1452 Rocket 4.0 20:18:39 10° SSW 20:23:52 67° WNW 20:29:08 10° NNE
USA 276 2.1 20:21:10 10° W 20:24:12 76° N 20:27:15 10° E
Cosmos 2369 3.8 20:18:37 10° NNW 20:24:23 74° ENE 20:29:34 13° SE
ARIANE 5 R/B 3.1 20:21:13 12° SE 20:25:06 47° ENE 20:29:21 10° N
Lacrosse 5 4.2 20:23:35 10° W 20:25:44 13° WSW 20:27:52 10° SW
Cosmos 2344 4.3 20:18:00 10° NW 20:26:45 89° NE 20:38:14 12° SE
ERS-1 Rocket 3.0 20:22:20 10° SSE 20:27:20 84° ENE 20:32:24 10° NNW
ATLAS 5 CENTAUR R/B 2.9 20:27:05 14° SE 20:28:17 16° ESE 20:30:40 10° ENE
Cosmos 1110 Rocket 4.1 20:23:19 10° SSW 20:28:36 90° NNW 20:33:57 10° NNE
Cosmos 1302 Rocket 4.3 20:26:50 10° S 20:31:46 46° ESE 20:36:44 10° NNE
COSMOS 2406 3.3 20:27:08 10° S 20:32:47 61° ESE 20:38:27 10° NE
Cosmos 1726 Rocket 3.5 20:36:59 10° N 20:41:20 80° E 20:44:55 15° SSE
Cosmos 968 Rocket 3.5 20:37:01 10° NNW 20:42:16 82° ENE 20:46:32 16° SSE
Cosmos 1833 Rocket 3.0 20:38:06 10° SW 20:43:42 73° WNW 20:49:21 10° NNE
Cosmos 1703 4.4 20:41:32 10° SSW 20:45:13 42° WNW 20:48:55 10° N
Cosmos 1408 3.0 20:45:32 18° SSE 20:47:40 40° E 20:50:57 10° NNE
Nadezhda 1 Rocket 4.0 20:44:21 10° SSW 20:50:27 81° W 20:56:34 10° N
ASTRO F (AKARI) 4.5 20:49:48 19° SSE 20:52:13 74° ENE 20:55:43 10° N
USA 267 4.1 20:46:55 10° ENE 20:52:23 28° SE 20:57:48 10° S
Cosmos 192 4.3 20:49:03 10° SSW 20:53:55 80° ESE 20:58:51 10° NNE
Cosmos 2322 Rocket 3.6 20:49:18 10° NNW 20:54:16 29° NE 20:59:12 10° ESE
Cosmos 1825 3.4 20:54:14 18° SE 20:55:56 25° E 20:59:04 10° NNE
Cosmos 1867 3.7 20:56:08 10° NW 21:01:36 72° SW 21:05:33 19° SSE
Cosmos 2084 Rocket 4.4 21:01:00 10° WNW 21:04:32 33° WSW 21:06:56 18° S
X-37B 2.6 21:05:01 10° WSW 21:06:14 13° SSW 21:06:14 13° SSW
Helios 1A Rocket 4.1 21:03:01 11° SSW 21:06:37 36° W 21:10:26 10° NNW
Cosmos 2278 3.7 21:00:58 10° NNW 21:06:44 82° ENE 21:10:53 19° SSE
Cosmos 2333 Rocket 4.3 21:07:26 10° N 21:11:42 21° NE 21:15:57 10° E
Meteor 1-11 4.2 21:07:11 13° S 21:12:14 81° E 21:17:50 10° NNE
SAR-Lupe-4 3.7 21:15:49 10° NNE 21:19:20 53° E 21:21:03 27° SSE
Cosmos 2082 Rocket 2.2 21:13:56 10° SSW 21:19:39 87° WNW 21:25:24 10° NNE
CZ-2C R/B 4.4 21:15:54 10° N 21:20:21 54° WNW 21:24:42 10° SSW
Cosmos 1892 Rocket 4.0 21:21:08 12° SSW 21:25:12 58° WNW 21:29:32 10° N
ALOS 2 4.1 21:23:19 15° ESE 21:26:03 26° ENE 21:29:43 10° N
USA 234 3.7 21:21:47 10° ESE 21:28:14 64° NNE 21:34:44 10° WNW
SL-8 Rocket 4.0 21:22:27 10° N 21:28:42 82° W 21:33:12 20° S
Cosmos 2360 Rocket 3.5 21:24:27 10° NNW 21:29:37 34° NE 21:34:30 11° ESE
Cosmos 2058 Rocket 3.6 21:27:03 10° NNW 21:31:23 54° W 21:34:19 20° SSW
Cosmos 1606 4.2 21:31:21 10° NNE 21:34:41 27° ENE 21:36:26 19° ESE
SAR-Lupe-1 4.0 21:32:25 10° NNE 21:36:01 85° W 21:38:02 25° SSW
Cosmos 1626 Rocket 3.6 21:33:53 26° S 21:36:12 65° E 21:40:32 10° NNE
Cosmos 1633 3.1 21:38:42 31° SE 21:39:40 38° E 21:42:55 10° NNE
Cosmos 1992 Rocket 3.9 21:36:30 17° SSW 21:40:34 79° ESE 21:45:51 10° NNE
Cosmos 1486 Rocket 4.1 21:37:09 10° NNW 21:42:22 71° WSW 21:45:24 25° S
Terra 3.5 21:39:42 11° SSW 21:43:32 26° W 21:47:32 10° NW
Cosmos 1892 3.5 21:44:17 16° SW 21:46:58 45° WNW 21:50:38 10° N
SJ 16-02 1.9 21:42:46 10° NNW 21:47:06 51° ENE 21:49:28 25° SE
Cosmos 2366 rocket 4.2 21:42:06 10° NNW 21:48:25 71° W 21:52:47 21° S
FALCON 9 DEB 3.4 21:46:38 10° WNW 21:49:45 41° SW 21:50:08 39° SSW
Cosmos 2058 4.2 21:51:56 22° ESE 21:53:17 27° E 21:56:48 10° NNE
Cosmos 2218 Rocket 4.3 21:47:01 10° NNW 21:53:23 65° W 21:57:46 21° S
ASTEX 1 4.0 21:50:07 10° N 21:55:00 54° WNW 21:58:45 17° SSW
Cosmos 807 4.0 21:54:39 10° NNW 21:57:41 76° W 21:58:19 50° S
USA 276 2.2 21:56:58 10° W 21:59:52 48° SSW 21:59:52 48° SSW
Cosmos 2221 4.4 21:57:40 10° NNE 22:01:03 21° ENE 22:03:27 14° ESE
ADEOS Rocket 3.7 21:56:00 21° SE 22:01:12 67° ENE 22:08:54 10° N
GP-B 4.1 21:57:50 10° NNW 22:02:00 40° W 22:05:00 17° SW
Cosmos 1980 Rocket 3.7 21:57:29 10° NW 22:02:03 26° WSW 22:05:29 15° SSW
SL-16 R/B 2.2 21:58:18 10° NNW 22:04:00 81° WSW 22:07:09 28° SSE
Cosmos 2219 Rocket 3.7 22:01:02 10° NNW 22:06:01 30° NE 22:10:59 10° ESE
Cosmos 1354 Rocket 4.0 22:06:07 10° NNW 22:11:27 81° WSW 22:14:08 30° SSE
ATLAS 5 CENTAUR R/B 1.7 22:08:26 10° SW 22:12:07 64° NW 22:16:24 10° NE
ERS-2 3.6 22:09:49 10° NE 22:12:39 22° E 22:13:08 21° ESE
SL-4 R/B 2.7 22:14:13 28° ESE 22:14:13 28° ESE 22:16:34 10° E
Cosmos 1503 Rocket 4.3 22:15:22 10° NNW 22:20:34 57° WSW 22:23:03 29° S
CENTAUR R/B 4.3 22:22:30 12° ESE 22:24:06 13° ESE 22:26:48 10° ENE
Cosmos 1777 Rocket 4.0 22:21:56 10° NNW 22:27:16 88° WSW 22:29:53 31° SSE
Cosmos 1758 Rocket 3.6 22:25:31 31° SSW 22:27:31 75° W 22:31:57 10° N
Cosmos 1825 3.9 22:28:50 15° WSW 22:31:11 26° WNW 22:34:26 10° NNW
USA 267 3.2 22:29:26 10° ENE 22:36:01 81° SE 22:42:35 10° SW
Cosmos 1812 Rocket 4.5 22:33:04 10° NNW 22:37:15 40° W 22:39:08 26° SW
Spot 4 4.4 22:35:11 28° SSW 22:37:17 46° W 22:41:57 10° NNW
Cosmos 2322 Rocket 2.3 22:33:06 10° NW 22:38:43 62° WSW 22:41:25 31° S
Cosmos 44 3.7 22:38:36 34° SSE 22:39:38 40° ESE 22:43:50 10° NE
Cosmos-2242 3.7 22:37:32 10° NNW 22:41:35 43° W 22:43:11 30° SW
Cosmos 1238 4.4 22:41:08 49° SW 22:41:49 69° W 22:45:24 10° N
Cosmos 1821 Rocket 4.3 22:36:52 10° NNW 22:42:56 56° W 22:46:22 26° SSW
BREEZE-M DEB (TANK) 4.1 22:40:12 10° W 22:43:53 73° SSW 22:59:41 10° ESE
Cosmos 2333 Rocket 2.3 22:51:08 10° NNW 22:56:56 79° ENE 23:00:26 25° SE
Meteor 2-11 Rocket 4.4 22:50:59 10° N 22:57:10 87° E 23:00:26 29° S
Cosmos 1605 Rocket 4.2 22:53:15 10° N 22:59:41 70° ENE 23:03:25 26° SSE
Celestis-02/Orion 38 4.5 22:58:28 29° SSE 23:01:08 86° WSW 23:06:15 10° NNW
ALOS 2 3.4 23:00:42 29° SW 23:02:13 39° W 23:06:22 10° NNW
BREEZE-M DEB (TANK) 4.1 22:49:01 10° WNW 23:03:14 69° SSW 23:06:22 19° SE
Cosmos 972 Rocket 4.1 22:58:45 10° NNW 23:03:57 74° WSW 23:06:40 31° S
Nadezhda 3 Rocket 4.4 23:02:12 22° SW 23:06:07 54° WNW 23:12:11 10° N
Cosmos 1340 Rocket 2.8 23:05:53 41° SSW 23:07:10 72° WNW 23:11:09 10° N
Gbstr 26 Del rocket 3.1 23:05:11 28° SW 23:07:26 65° SSE 23:12:39 10° ENE
Cosmos 1812 4.1 23:05:27 10° N 23:08:52 30° ENE 23:10:36 21° ESE
Resurs 1-4 Rocket 4.4 23:07:24 10° ENE 23:09:37 12° E 23:11:48 10° ESE
Cosmos 1606 4.1 23:06:56 10° NNW 23:10:14 27° W 23:11:18 23° WSW
USA 234 3.3 23:07:03 22° SSE 23:11:20 58° SW 23:17:49 10° WNW
Cosmos 2360 Rocket 2.5 23:08:21 10° NW 23:13:51 51° WSW 23:16:15 31° SSW
Meteor 2-3 Rocket 4.1 23:12:54 29° SSE 23:15:35 54° E 23:21:01 10° NNE
BREEZE-M DEB (TANK) 3.0 23:08:59 10° W 23:16:43 89° N 23:19:32 10° E
Cosmos 1953 Rocket 3.8 23:15:54 33° SW 23:17:43 62° WNW 23:22:06 10° N
Cosmos 2333 4.2 23:15:14 10° NNW 23:21:00 71° WSW 23:23:58 30° S
CZ-2D R/B 4.3 23:18:47 10° NE 23:21:42 15° E 23:24:36 10° ESE
CRYOSAT 2 4.4 23:19:59 34° SSW 23:22:04 69° W 23:26:58 10° N
Cosmos 1763 Rocket 3.8 23:21:39 31° SSE 23:23:51 53° ESE 23:29:00 10° NNE
Cosmos 2151 3.6 23:23:01 31° SE 23:24:35 45° E 23:28:42 10° NNE
SJ 16-02 3.0 23:22:04 10° NW 23:25:17 20° W 23:26:24 18° WSW
PSLV R/B 3.8 23:22:28 10° NNE 23:27:15 82° WNW 23:29:18 34° SSW
Cosmos 1782 3.0 23:24:20 10° N 23:28:18 64° ENE 23:29:46 35° SSE
Cosmos 2058 4.2 23:28:04 21° WSW 23:30:02 31° WNW 23:33:48 10° N
Cosmos 1833 4.2 23:27:13 26° SW 23:30:29 78° WNW 23:36:07 10° NNE
Cosmos 990 Rocket 3.9 23:29:34 10° NNW 23:34:45 80° WSW 23:37:18 30° SSE
ADEOS II 4.5 23:35:59 10° ENE 23:37:46 12° E 23:39:32 10° ESE
USA 290 2.2 23:34:48 10° NNW 23:38:04 77° ENE 23:38:48 49° SE
Cosmos 2221 3.1 23:34:38 10° NNW 23:38:48 44° W 23:40:15 32° SW
SL-23 DEB 3.9 23:39:14 39° SE 23:39:14 39° SE 23:41:56 10° ENE
NOSS 0 Rocket 4.4 23:32:49 10° NNW 23:38:57 59° NE 23:45:01 10° SE
Cosmos 2285 Rocket 4.4 23:36:02 27° S 23:39:29 55° ESE 23:45:44 10° NNE
Cosmos 2237 Rocket 3.5 23:34:10 10° NNW 23:39:30 39° NE 23:44:45 10° ESE
SL-19 R/B 4.5 23:38:49 34° SSE 23:40:31 80° ENE 23:45:02 10° NNW
COSMOS 2428 2.7 23:37:44 10° NNW 23:43:29 90° WNW 23:47:19 22° SSE
MOZ.5/SAFIR/RUBIN 5/SL-8 4.4 23:40:59 20° SE 23:44:06 52° ENE 23:48:41 10° N
ERS-2 3.4 23:42:50 10° N 23:46:03 31° WNW 23:47:29 23° WSW
Cosmos 1842 Rocket 4.0 23:42:24 10° NNW 23:46:45 50° W 23:48:21 33° SSW
Cosmos 2297 Rocket 3.8 23:44:07 15° SE 23:47:03 22° E 23:51:15 10° NE
SL-16 R/B 4.1 23:44:21 10° WNW 23:47:11 14° W 23:49:00 12° WSW
COSMOS 2455 3.7 23:42:06 10° NNW 23:47:59 51° NE 23:53:50 10° ESE
ISS -3.8 23:47:44 56° S 23:48:05 61° SSE 23:51:25 10° ENE
COSMOS 2487 2.4 23:49:36 48° WSW 23:50:08 58° WNW 23:53:12 10° NNE
Cosmos 2219 Rocket 2.3 23:44:45 10° NW 23:50:21 59° WSW 23:53:12 29° S
Cosmos 468 Rocket 4.0 23:49:02 31° SSW 23:51:38 78° ESE 23:56:59 10° NNE
SL-4 R/B 1.8 23:49:36 15° W 23:52:29 74° NNW 23:56:17 10° ENE
SL-27 R/B 2.8 23:53:43 37° WSW 23:54:36 49° WNW 23:57:49 10° NNE
